Date,TemperatureHighF,TemperatureAvgF,TemperatureLowF,DewpointHighF,DewpointAvgF,DewpointLowF,HumidityHigh,HumidityAvg,HumidityLow,PressureMaxIn,PressureMinIn,WindSpeedMaxMPH,WindSpeedAvgMPH,GustSpeedMaxMPH,PrecipitationSumIn
2013-1-1,61.0,49.1,38.0,38.0,29.5,15.0,89,52,20,0.00,40.00,6,1,17,0.00
2013-1-2,67.0,54.7,39.0,28.0,18.4,9.0,64,27,12,0.00,40.00,8,3,20,0.00
2013-1-3,72.0,49.3,34.0,41.0,25.5,9.0,68,44,9,0.00,40.00,8,2,16,0.00
2013-1-4,67.0,49.9,35.0,25.0,18.7,12.0,56,32,13,0.00,40.00,4,1,10,0.00
2013-1-5,65.0,49.3,37.0,34.0,25.6,18.0,74,42,19,0.00,40.00,5,1,10,0.00
2013-1-6,56.0,47.6,38.0,49.0,40.4,31.0,97,78,57,0.00,40.00,7,1,15,0.00
2013-1-7,69.0,50.2,38.0,44.0,32.0,18.0,98,59,14,0.00,40.00,7,2,22,0.00
2013-1-8,71.0,51.4,36.0,43.0,34.8,26.0,82,56,30,0.00,40.00,4,1,8,0.00
2013-1-9,70.0,52.7,41.0,51.0,40.3,34.0,95,67,27,0.00,40.00,4,1,8,0.00
2013-1-10,55.0,49.4,37.0,49.0,39.3,22.0,97,70,40,0.00,40.00,10,2,19,0.00
2013-1-11,55.0,41.0,31.0,28.0,24.9,16.0,79,57,23,0.00,40.00,7,2,15,0.00
2013-1-12,55.0,41.6,29.0,27.0,22.2,16.0,81,49,22,0.00,40.00,6,2,12,0.00
2013-1-13,55.0,41.4,28.0,25.0,21.1,15.0,83,49,21,0.00,40.00,6,2,12,0.00
2013-1-14,57.0,46.7,31.0,23.0,0.4,-8.0,72,16,8,0.00,40.00,9,4,19,0.00
2013-1-15,60.0,45.3,35.0,25.0,14.4,3.0,61,30,15,0.00,40.00,8,2,15,0.00
2013-1-16,69.0,49.2,33.0,35.0,27.5,23.0,68,46,21,0.00,40.00,5,2,12,0.00
2013-1-17,79.0,63.2,42.0,26.0,15.8,11.0,49,19,8,0.00,40.00,10,3,21,0.00
2013-1-18,82.0,61.3,43.0,27.0,19.3,12.0,39,22,10,0.00,40.00,7,2,15,0.00
2013-1-19,79.0,62.3,47.0,26.0,18.5,11.0,36,20,10,0.00,40.00,4,2,10,0.00
2013-1-20,83.0,60.2,42.0,24.0,16.5,9.0,36,20,7,0.00,40.00,5,1,10,0.00
2013-1-21,83.0,62.3,42.0,24.0,13.9,5.0,38,18,6,0.00,40.00,10,2,19,0.00
2013-1-22,81.0,58.4,40.0,25.0,16.9,11.0,35,22,8,0.00,40.00,5,1,9,0.00
2013-1-23,80.0,63.0,50.0,43.0,30.0,19.0,44,30,15,0.00,40.00,5,1,11,0.00
2013-1-24,69.0,59.2,53.0,57.0,50.3,34.0,94,74,39,0.00,40.00,5,1,11,0.00
2013-1-25,64.0,59.8,57.0,61.0,57.6,54.0,98,93,76,0.00,40.00,4,1,13,0.00
2013-1-26,66.0,58.5,55.0,61.0,57.0,54.0,98,96,77,0.00,40.00,6,1,11,0.00
2013-1-27,58.0,52.5,44.0,54.0,48.5,42.0,99,88,59,0.00,40.00,6,1,17,0.00
2013-1-28,58.0,47.1,38.0,45.0,36.3,30.0,95,70,34,0.00,40.00,6,2,14,0.00
2013-1-29,59.0,46.9,38.0,40.0,35.0,31.0,85,65,42,0.00,40.00,4,2,12,0.00
2013-1-30,69.0,52.4,38.0,43.0,38.5,35.0,95,64,29,0.00,40.00,5,2,11,0.00
2013-1-31,80.0,61.9,41.0,45.0,38.7,30.0,87,48,16,0.00,40.00,6,1,16,0.00
2013-2-1,74.0,59.5,43.0,46.0,39.5,35.0,76,50,26,0.00,40.00,4,1,10,0.00
2013-2-2,75.0,60.9,48.0,49.0,43.5,40.0,76,55,31,0.00,40.00,3,1,7,0.00
2013-2-3,72.0,61.3,49.0,50.0,44.7,41.0,82,56,37,0.00,40.00,5,1,9,0.00
2013-2-4,69.0,54.7,42.0,52.0,45.8,39.0,98,75,41,0.00,40.00,4,1,10,0.00
2013-2-5,56.0,50.0,44.0,50.0,47.0,44.0,99,90,77,0.00,40.00,4,1,10,0.00
2013-2-6,62.0,53.2,42.0,48.0,45.5,39.0,94,76,53,0.00,40.00,6,1,13,0.00
2013-2-7,62.0,50.0,39.0,49.0,43.8,37.0,97,81,60,0.00,40.00,5,1,11,0.00
2013-2-8,51.0,45.8,40.0,46.0,40.8,36.0,97,83,65,0.00,40.00,8,2,19,0.00
2013-2-9,57.0,44.0,34.0,42.0,36.4,32.0,98,78,41,0.00,40.00,6,2,13,0.00
2013-2-10,54.0,45.2,38.0,45.0,38.1,32.0,96,77,55,0.00,40.00,4,1,9,0.00
2013-2-11,63.0,47.1,36.0,43.0,32.6,11.0,94,65,13,0.00,40.00,7,2,15,0.00
2013-2-12,63.0,48.1,37.0,44.0,31.1,22.0,74,53,29,0.00,40.00,6,2,13,0.00
2013-2-13,66.0,49.5,34.0,45.0,34.8,28.0,85,60,29,0.00,40.00,5,1,11,0.00
2013-2-14,75.0,53.4,34.0,46.0,37.5,31.0,89,59,27,0.00,40.00,4,1,10,0.00
2013-2-15,83.0,64.9,43.0,40.0,22.5,12.0,85,25,8,0.00,40.00,9,3,18,0.00
2013-2-16,82.0,65.9,46.0,25.0,18.1,9.0,35,18,7,0.00,40.00,8,3,19,0.00
2013-2-17,67.0,52.4,40.0,48.0,34.5,19.0,92,54,26,0.00,40.00,6,2,12,0.00
2013-2-18,64.0,52.0,42.0,46.0,42.2,37.0,88,70,49,0.00,40.00,6,2,11,0.00
2013-2-19,53.0,49.3,45.0,48.0,42.0,37.0,95,77,61,0.00,40.00,5,2,12,0.00
2013-2-20,56.0,46.9,35.0,44.0,35.2,26.0,95,66,34,0.00,40.00,7,2,16,0.00
2013-2-21,58.0,47.4,41.0,47.0,40.4,37.0,93,78,46,0.00,40.00,5,1,11,0.00
2013-2-22,63.0,49.0,37.0,44.0,36.8,31.0,92,65,38,0.00,40.00,6,2,14,0.00
2013-2-23,63.0,49.3,36.0,43.0,35.9,26.0,90,63,26,0.00,40.00,6,2,11,0.00
2013-2-24,69.0,52.4,38.0,41.0,18.3,1.0,97,41,7,0.00,40.00,7,2,19,0.00
2013-2-25,68.0,51.2,35.0,28.0,19.0,8.0,52,31,10,0.00,40.00,7,2,14,0.00
2013-2-26,69.0,50.7,33.0,44.0,31.2,18.0,72,49,25,0.00,40.00,5,1,10,0.00
2013-2-27,76.0,60.5,42.0,27.0,15.6,10.0,41,18,8,0.00,40.00,7,2,14,0.00
2013-2-28,80.0,59.4,40.0,25.0,17.9,10.0,44,23,8,0.00,40.00,9,2,16,0.00
2013-3-1,86.0,66.3,43.0,28.0,21.9,16.0,47,22,8,26.11,25.52,8,3,22,0.00
2013-3-2,85.0,67.3,49.0,29.0,24.5,18.0,42,22,9,25.72,25.52,5,2,13,0.00
2013-3-3,73.0,57.3,44.0,51.0,37.5,26.0,90,51,18,26.28,25.58,6,2,13,0.00
2013-3-4,68.0,55.8,44.0,50.0,46.4,41.0,92,72,49,26.28,25.90,4,1,11,0.00
2013-3-5,64.0,53.3,48.0,50.0,48.0,45.0,94,83,60,26.31,26.02,5,1,10,0.00
2013-3-6,62.0,53.7,46.0,49.0,44.0,40.0,95,72,46,26.31,25.81,6,2,14,0.00
2013-3-7,56.0,51.5,46.0,51.0,46.4,41.0,96,83,64,26.34,25.99,3,1,6,0.00
2013-3-8,55.0,49.6,45.0,48.0,43.2,37.0,96,80,55,26.31,25.87,5,1,15,0.00
2013-3-9,60.0,51.5,45.0,48.0,44.5,41.0,97,79,53,26.34,25.90,5,1,12,0.00
2013-3-10,73.0,54.7,38.0,45.0,38.4,28.0,95,61,21,26.26,25.61,7,2,15,0.00
2013-3-11,76.0,56.3,38.0,43.0,35.7,30.0,82,51,20,26.14,25.63,5,1,10,0.00
2013-3-12,81.0,59.5,39.0,47.0,39.6,31.0,91,55,19,26.23,25.63,5,2,10,0.00
2013-3-13,87.0,62.0,44.0,53.0,43.2,36.0,88,57,17,26.31,25.72,6,1,11,0.00
2013-3-14,88.0,62.2,42.0,52.0,45.1,35.0,98,65,16,26.34,40.00,6,1,11,0.00
2013-3-15,80.0,57.7,42.0,53.0,48.6,42.0,99,77,33,0.00,40.00,5,1,10,0.00
2013-3-16,68.0,53.5,44.0,51.0,48.1,44.0,99,84,52,0.00,40.00,6,2,13,0.00
2013-3-17,68.0,56.2,50.0,51.0,49.0,47.0,96,78,52,0.00,40.00,6,2,13,0.00
2013-3-18,65.0,56.5,50.0,50.0,47.8,45.0,88,74,56,0.00,40.00,5,2,10,0.00
2013-3-19,70.0,56.5,47.0,52.0,48.5,44.0,92,76,51,0.00,40.00,5,2,10,0.00
2013-3-20,71.0,57.9,46.0,51.0,48.1,45.0,96,73,46,0.00,40.00,6,2,12,0.00
2013-3-21,71.0,57.0,46.0,52.0,47.2,44.0,94,73,43,0.00,40.00,6,2,14,0.00
2013-3-22,67.0,57.3,48.0,51.0,48.3,44.0,92,74,54,0.00,40.00,6,2,11,0.00
2013-3-23,71.0,55.0,41.0,51.0,46.5,39.0,94,75,48,0.00,40.00,5,2,10,0.00
2013-3-24,75.0,57.6,42.0,51.0,44.8,39.0,93,67,29,0.00,40.00,6,2,12,0.00
2013-3-25,79.0,57.7,41.0,51.0,45.8,39.0,94,69,29,0.00,40.00,5,1,11,0.00
2013-3-26,69.0,55.3,45.0,52.0,48.0,44.0,98,80,49,0.00,40.00,6,2,12,0.00
2013-3-27,68.0,57.2,50.0,50.0,47.6,45.0,86,72,50,0.00,40.00,5,2,12,0.00
2013-3-28,74.0,59.3,46.0,52.0,48.4,44.0,95,70,39,0.00,40.00,6,2,14,0.00
2013-3-29,73.0,59.1,50.0,54.0,51.5,46.0,96,78,50,0.00,40.00,6,2,11,0.00
2013-3-30,72.0,60.5,49.0,54.0,50.4,-99.9,91,74,49,0.00,40.00,6,2,12,0.00
2013-3-31,70.0,57.2,46.0,54.0,49.4,43.0,97,77,50,0.00,40.00,8,2,16,0.00
2013-4-1,66.0,58.4,49.0,53.0,49.1,44.0,93,73,47,0.00,40.00,7,2,18,0.00
2013-4-2,69.0,57.2,48.0,51.0,48.9,45.0,94,75,50,0.00,40.00,6,1,12,0.00
2013-4-3,77.0,58.3,44.0,54.0,49.6,42.0,94,76,37,0.00,40.00,6,2,13,0.00
2013-4-4,77.0,61.9,51.0,53.0,50.4,45.0,94,70,37,0.00,40.00,6,2,15,0.00
2013-4-5,68.0,58.2,50.0,54.0,51.6,46.0,94,80,59,0.00,40.00,6,2,12,0.00
2013-4-6,69.0,60.0,50.0,53.0,51.0,45.0,87,73,55,0.00,40.00,6,2,15,0.00
2013-4-7,71.0,56.5,44.0,52.0,48.5,42.0,96,76,50,0.00,40.00,7,2,13,0.00
2013-4-8,63.0,55.5,48.0,54.0,43.7,35.0,93,67,36,0.00,40.00,8,3,23,0.00
2013-4-9,71.0,56.2,42.0,41.0,32.7,19.0,83,48,15,0.00,40.00,8,2,16,0.00
2013-4-10,77.0,61.5,42.0,42.0,28.3,14.0,56,32,10,0.00,40.00,9,3,19,0.00
2013-4-11,75.0,58.2,43.0,51.0,37.3,23.0,84,49,15,0.00,40.00,6,2,15,0.00
2013-4-12,73.0,59.9,50.0,52.0,49.3,45.0,89,70,44,0.00,40.00,6,2,13,0.00
2013-4-13,61.0,56.8,54.0,53.0,51.0,48.0,86,81,75,0.00,40.00,4,2,9,0.00
2013-4-14,62.0,55.7,53.0,50.0,48.4,46.0,91,77,64,0.00,40.00,4,2,10,0.00
2013-4-15,62.0,56.4,53.0,51.0,49.0,46.0,90,76,63,0.00,40.00,8,2,16,0.00
2013-4-16,61.0,52.9,44.0,46.0,39.9,31.0,88,63,35,0.00,40.00,7,2,15,0.00
2013-4-17,73.0,56.0,40.0,35.0,23.3,12.0,72,35,10,0.00,40.00,9,2,22,0.00
2013-4-18,79.0,64.2,43.0,20.0,14.6,8.0,37,16,7,0.00,40.00,10,3,20,0.00
2013-4-19,85.0,66.0,43.0,18.0,14.4,8.0,32,16,6,0.00,40.00,7,2,15,0.00
2013-4-20,83.0,64.8,42.0,44.0,29.7,17.0,56,30,14,0.00,40.00,7,2,12,0.00
2013-4-21,81.0,61.6,44.0,53.0,42.5,33.0,86,54,23,0.00,40.00,6,2,14,0.00
2013-4-22,74.0,59.4,50.0,51.0,49.6,46.0,91,72,43,0.00,40.00,8,2,15,0.00
2013-4-23,73.0,60.1,52.0,50.0,48.2,45.0,82,66,42,0.00,40.00,6,2,13,0.00
2013-4-24,61.0,57.4,51.0,54.0,50.2,45.0,94,77,59,0.00,40.00,5,1,9,0.00
2013-4-25,71.0,59.9,50.0,53.0,49.3,44.0,95,71,43,0.00,40.00,6,2,13,0.00
2013-4-26,77.0,61.7,45.0,50.0,45.9,41.0,91,60,33,0.00,40.00,6,2,14,0.00
2013-4-27,77.0,61.1,44.0,55.0,49.3,40.0,91,67,46,0.00,40.00,5,2,12,0.00
2013-4-28,79.0,61.8,53.0,55.0,52.9,49.0,95,76,43,0.00,40.00,5,2,12,0.00
2013-4-29,74.0,61.3,53.0,54.0,52.9,51.0,96,76,48,0.00,40.00,6,2,13,0.00
2013-4-30,69.0,60.7,55.0,53.0,51.1,48.0,83,71,55,0.00,40.00,5,2,13,0.00
2013-5-1,76.0,63.9,55.0,54.0,52.8,50.0,87,69,45,0.00,40.00,6,2,12,0.00
2013-5-2,96.0,72.5,54.0,54.0,37.9,1.0,93,47,3,0.00,40.00,8,2,22,0.00
2013-5-3,92.0,74.7,54.0,51.0,19.7,5.0,60,18,5,0.00,40.00,8,2,15,0.00
2013-5-4,72.0,60.6,45.0,53.0,44.2,24.0,76,56,33,0.00,40.00,6,2,14,0.00
2013-5-5,66.0,60.3,57.0,53.0,50.2,47.0,78,70,52,0.00,40.00,6,2,14,0.00
2013-5-6,64.0,59.2,56.0,58.0,54.2,51.0,96,84,65,0.00,40.00,5,2,12,0.00
2013-5-7,68.0,59.4,54.0,55.0,49.9,44.0,92,73,42,0.00,40.00,7,2,15,0.00
2013-5-8,68.0,60.0,52.0,53.0,49.2,44.0,91,69,48,0.00,40.00,6,2,13,0.00
2013-5-9,70.0,60.3,49.0,53.0,49.5,45.0,87,69,50,0.00,40.00,7,2,13,0.00
2013-5-10,79.0,64.0,53.0,57.0,51.5,-99.9,90,69,45,0.00,40.00,6,2,13,0.00
2013-5-11,89.0,67.0,51.0,59.0,53.8,-99.9,96,70,32,0.00,40.00,7,2,13,0.00
2013-5-12,96.0,75.9,51.0,58.0,48.8,38.0,98,51,14,0.00,40.00,7,2,12,0.00
2013-5-13,100.0,79.9,58.0,47.0,41.0,37.0,52,29,12,0.00,40.00,7,2,16,0.00
2013-5-14,85.0,66.8,53.0,57.0,47.6,39.0,84,52,21,0.00,40.00,7,2,13,0.00
2013-5-15,75.0,63.4,55.0,55.0,52.1,49.0,85,68,45,0.00,40.00,6,2,14,0.00
2013-5-16,72.0,59.5,56.0,55.0,35.2,-99.9,80,68,51,0.00,40.00,6,2,13,0.00
2013-5-17,72.0,64.2,60.0,55.0,49.8,-99.9,82,66,53,0.00,40.00,6,2,13,0.00
2013-5-18,72.0,64.2,57.0,55.0,53.1,49.0,84,68,50,0.00,40.00,6,2,12,0.00
2013-5-19,75.0,62.7,49.0,55.0,51.6,46.0,90,69,48,0.00,40.00,6,2,13,0.00
2013-5-20,82.0,64.4,48.0,58.0,53.0,45.0,93,70,39,0.00,40.00,7,2,11,0.00
2013-5-21,81.0,65.8,56.0,57.0,55.4,52.0,93,72,37,0.00,40.00,7,2,13,0.00
2013-5-22,74.0,64.4,56.0,56.0,52.5,47.0,82,66,50,0.00,40.00,5,2,13,0.00
2013-5-23,71.0,62.7,55.0,53.0,50.0,46.0,84,65,47,0.00,40.00,5,2,13,0.00
2013-5-24,70.0,61.8,52.0,52.0,48.9,44.0,80,63,49,0.00,40.00,6,2,14,0.00
2013-5-25,72.0,59.5,47.0,53.0,47.9,42.0,86,68,44,0.00,40.00,7,2,14,0.00
2013-5-26,70.0,62.1,54.0,52.0,50.6,47.0,82,67,51,0.00,40.00,6,2,14,0.00
2013-5-27,74.0,61.5,48.0,56.0,50.9,44.0,88,70,44,0.00,40.00,8,2,15,0.00
2013-5-28,75.0,65.0,57.0,56.0,53.5,49.0,81,67,50,0.00,40.00,7,2,16,0.00
2013-5-29,79.0,65.7,53.0,58.0,53.8,49.0,86,68,44,0.00,40.00,6,2,15,0.00
2013-5-30,78.0,64.4,51.0,58.0,54.4,48.0,93,72,47,0.00,40.00,5,2,13,0.00
2013-5-31,80.0,66.8,60.0,58.0,56.1,54.0,86,70,46,0.00,40.00,6,2,12,0.00
2013-6-1,83.0,67.5,58.0,60.0,57.4,53.0,91,72,45,0.00,40.00,7,2,12,0.00
2013-6-2,73.0,64.1,60.0,59.0,57.0,55.0,90,79,57,0.00,40.00,5,2,12,0.00
2013-6-3,74.0,65.1,59.0,57.0,54.8,53.0,93,71,51,0.00,40.00,7,2,13,0.00
2013-6-4,75.0,65.2,59.0,57.0,54.8,53.0,90,70,49,0.00,40.00,7,2,13,0.00
2013-6-5,78.0,66.4,57.0,56.0,54.5,51.0,81,67,43,0.00,40.00,6,2,14,0.00
2013-6-6,75.0,64.1,52.0,57.0,54.2,48.0,88,72,52,0.00,40.00,6,2,12,0.00
2013-6-7,76.0,64.6,58.0,57.0,55.3,54.0,86,74,51,0.00,40.00,6,2,13,0.00
2013-6-8,73.0,64.4,60.0,57.0,55.5,55.0,85,74,55,0.00,40.00,6,2,14,0.00
2013-6-9,75.0,64.9,59.0,57.0,55.1,52.0,86,72,53,0.00,40.00,9,2,16,0.00
2013-6-10,77.0,68.9,58.0,55.0,52.4,50.0,79,57,43,0.00,40.00,5,3,12,0.00
2013-6-11,85.0,66.8,51.0,59.0,53.2,47.0,89,66,30,0.00,40.00,6,2,14,0.00
2013-6-12,76.0,64.7,60.0,58.0,57.1,56.0,90,77,50,0.00,40.00,6,2,13,0.00
2013-6-13,77.0,67.6,61.0,57.0,56.2,54.0,83,68,48,0.00,40.00,6,2,13,0.00
2013-6-14,75.0,64.3,57.0,56.0,54.5,51.0,85,72,49,0.00,40.00,5,2,13,0.00
2013-6-15,74.0,63.6,57.0,55.0,52.3,50.0,84,68,46,0.00,40.00,6,2,13,0.00
2013-6-16,77.0,66.0,55.0,56.0,52.6,47.0,81,64,44,0.00,40.00,6,2,13,0.00
2013-6-17,80.0,65.6,54.0,57.0,54.5,51.0,100,71,43,0.00,40.00,6,2,12,0.00
2013-6-18,78.0,64.1,51.0,58.0,54.4,47.0,100,74,47,0.00,40.00,8,2,15,0.00
2013-6-19,79.0,67.7,59.0,57.0,54.4,50.0,90,65,41,0.00,40.00,7,2,14,0.00
2013-6-20,80.0,64.3,49.0,56.0,50.9,44.0,86,64,34,0.00,40.00,5,2,12,0.00
2013-6-21,80.0,76.5,73.0,55.0,53.5,52.0,53,45,40,0.00,40.00,6,5,15,0.00
2013-6-22,80.0,70.1,53.0,57.0,54.8,47.0,84,60,40,0.00,40.00,8,3,15,0.00
2013-6-23,75.0,65.0,59.0,56.0,54.5,52.0,85,70,49,0.00,40.00,6,2,15,0.00
2013-6-24,75.0,65.8,60.0,59.0,55.5,53.0,94,71,51,0.00,40.00,6,2,12,0.00
2013-6-25,80.0,67.5,55.0,60.0,56.4,50.0,87,69,48,0.00,40.00,5,2,14,0.00
2013-6-26,87.0,74.2,59.0,61.0,58.1,53.0,91,60,38,0.00,40.00,6,2,13,0.00
2013-6-27,91.0,73.2,58.0,61.0,57.6,54.0,90,64,29,0.00,40.00,6,2,13,0.00
2013-6-28,93.0,77.8,59.0,61.0,57.6,54.0,90,56,29,0.00,40.00,6,2,11,0.00
2013-6-29,96.0,80.2,61.0,61.0,57.5,54.0,82,51,27,0.00,40.00,6,2,12,0.00
2013-6-30,92.0,75.8,62.0,64.0,58.3,51.0,81,57,29,0.00,40.00,5,2,11,0.00
2013-7-1,95.0,74.3,62.0,62.0,57.4,50.0,83,61,23,0.00,40.00,5,2,12,0.00
2013-7-2,82.0,70.5,59.0,63.0,59.1,54.0,85,69,44,0.00,40.00,6,2,12,0.00
2013-7-3,89.0,73.1,59.0,62.0,59.9,55.0,88,66,39,0.00,40.00,6,2,12,0.00
2013-7-4,87.0,71.1,61.0,61.0,59.3,57.0,93,70,37,0.00,40.00,6,2,12,0.00
2013-7-5,81.0,69.7,62.0,61.0,59.0,55.0,83,70,48,0.00,40.00,6,2,13,0.00
2013-7-6,81.0,69.6,65.0,62.0,60.4,59.0,84,74,50,0.00,40.00,6,2,12,0.00
2013-7-7,86.0,73.9,62.0,62.0,60.7,57.0,85,66,44,0.00,40.00,5,2,12,0.00
2013-7-8,95.0,70.3,56.0,61.0,56.7,52.0,100,68,24,0.00,40.00,6,1,15,0.00
2013-7-9,85.0,72.3,60.0,61.0,56.3,50.0,78,59,40,0.00,40.00,5,2,11,0.00
2013-7-10,84.0,70.6,65.0,63.0,56.4,-99.9,85,66,33,0.00,40.00,4,2,11,0.00
2013-7-11,79.0,70.6,66.0,64.0,62.4,61.0,87,76,60,0.00,40.00,5,1,9,0.00
2013-7-12,84.0,73.4,64.0,63.0,61.9,60.0,89,70,46,0.00,40.00,6,2,12,0.00
2013-7-13,85.0,72.8,63.0,62.0,60.3,58.0,91,68,43,0.00,40.00,6,2,11,0.00
2013-7-14,88.0,73.6,62.0,62.0,59.3,55.0,90,64,35,0.00,40.00,6,2,13,0.00
2013-7-15,87.0,72.7,59.0,61.0,55.7,47.0,87,60,29,0.00,40.00,5,2,11,0.00
2013-7-16,87.0,74.3,57.0,57.0,51.7,46.0,73,48,28,0.00,40.00,5,2,12,0.00
2013-7-17,90.0,68.7,50.0,54.0,47.2,41.0,81,51,21,0.00,40.00,7,2,13,0.00
2013-7-18,85.0,71.7,54.0,60.0,54.1,43.0,78,56,36,0.00,40.00,5,2,12,0.00
2013-7-19,83.0,67.7,56.0,61.0,57.2,50.0,89,71,46,0.00,40.00,5,2,12,0.00
2013-7-20,76.0,67.0,63.0,60.0,57.3,-99.9,84,73,57,0.00,40.00,4,2,10,0.00
2013-7-21,74.0,67.4,63.0,62.0,59.9,58.0,88,78,63,0.00,40.00,4,1,10,0.00
2013-7-22,84.0,72.2,62.0,61.0,60.0,58.0,87,67,46,0.00,40.00,6,2,12,0.00
2013-7-23,83.0,72.2,62.0,62.0,59.4,57.0,86,66,45,0.00,40.00,5,2,14,0.00
2013-7-24,85.0,71.4,60.0,61.0,58.1,54.0,83,65,43,0.00,40.00,6,2,14,0.00
2013-7-25,82.0,70.2,62.0,60.0,58.8,57.0,89,70,45,0.00,40.00,6,2,11,0.00
2013-7-26,87.0,69.6,64.0,63.0,60.2,59.0,86,74,42,0.00,40.00,6,1,13,0.00
2013-7-27,82.0,68.3,62.0,61.0,59.7,58.0,90,76,48,0.00,40.00,8,2,14,0.00
2013-7-28,78.0,66.6,61.0,60.0,58.1,56.0,92,76,51,0.00,40.00,6,2,14,0.00
2013-7-29,78.0,67.2,59.0,57.0,54.7,52.0,81,66,45,0.00,40.00,5,2,12,0.00
2013-7-30,79.0,66.6,57.0,57.0,54.7,51.0,85,67,45,0.00,40.00,6,2,11,0.00
2013-7-31,76.0,64.5,54.0,57.0,54.3,50.0,87,71,51,0.00,40.00,6,2,13,0.00
2013-8-1,77.0,68.7,62.0,58.0,55.4,54.0,85,64,46,0.00,40.00,6,2,12,0.00
2013-8-2,79.0,67.4,60.0,57.0,55.7,54.0,84,68,45,0.00,40.00,6,2,12,0.00
2013-8-3,79.0,65.8,56.0,58.0,55.6,51.0,85,71,48,0.00,40.00,6,2,11,0.00
2013-8-4,80.0,68.2,59.0,58.0,56.2,52.0,87,68,45,0.00,40.00,6,2,12,0.00
2013-8-5,84.0,66.3,53.0,57.0,54.3,49.0,90,68,38,0.00,40.00,5,2,12,0.00
2013-8-6,79.0,67.8,59.0,58.0,55.3,51.0,88,67,44,0.00,40.00,7,2,14,0.00
2013-8-7,80.0,67.3,56.0,57.0,53.9,50.0,84,65,40,0.00,40.00,6,2,11,0.00
2013-8-8,82.0,66.1,50.0,57.0,52.1,43.0,83,63,37,0.00,40.00,7,2,11,0.00
2013-8-9,77.0,62.6,54.0,56.0,52.6,45.0,86,71,46,0.00,40.00,6,2,12,0.00
2013-8-10,77.0,64.6,56.0,56.0,53.4,50.0,87,69,44,0.00,40.00,5,2,11,0.00
2013-8-11,81.0,66.0,54.0,58.0,54.0,49.0,96,68,42,0.00,40.00,5,2,11,0.00
2013-8-16,88.0,66.1,59.0,59.0,30.3,-99.9,83,44,33,0.00,40.00,5,3,10,0.00
2013-8-17,89.0,69.6,59.0,60.0,42.6,-99.9,81,49,34,0.00,40.00,5,2,11,0.00
2013-8-18,81.0,71.5,59.0,60.0,57.7,52.0,81,63,47,0.00,40.00,5,2,12,0.00
2013-8-19,80.0,43.9,62.0,60.0,1.4,-99.9,87,63,50,0.00,40.00,5,2,10,0.00
2013-8-20,88.0,71.1,61.0,60.0,47.5,-99.9,90,58,34,0.00,40.00,5,2,11,0.00
2013-8-21,94.0,70.9,57.0,56.0,53.8,51.0,84,60,25,0.00,40.00,6,2,12,0.00
2013-8-22,93.0,76.5,58.0,54.0,47.7,35.0,73,41,13,0.00,40.00,6,2,11,0.00
2013-8-23,93.0,76.7,58.0,54.0,50.3,46.0,69,44,25,0.00,40.00,5,2,11,0.00
2013-9-25,76.0,69.8,53.0,57.0,54.3,40.0,73,58,49,0.00,40.00,5,3,12,0.00
2013-9-26,71.0,63.1,54.0,53.0,47.8,41.0,73,59,37,0.00,40.00,7,3,16,0.00
2013-9-27,70.0,57.5,47.0,41.0,36.8,30.0,73,49,30,0.00,40.00,2,1,4,0.00
2013-9-28,84.0,50.1,48.0,28.0,9.3,-99.9,40,27,10,0.00,40.00,3,1,8,0.00
2013-9-29,87.0,63.9,53.0,29.0,25.9,24.0,36,26,10,0.00,40.00,5,1,11,0.00
2013-9-30,82.0,69.8,50.0,48.0,40.0,28.0,50,36,18,0.00,40.00,5,2,8,0.00
2013-10-1,59.0,59.0,59.0,54.0,54.0,54.0,83,83,83,0.00,40.00,0,0,1,0.00
2013-11-2,81.0,58.0,75.0,41.0,3.5,-99.9,29,18,19,0.00,40.00,4,2,9,0.00
2013-11-3,69.0,52.8,47.0,50.0,42.6,39.0,74,69,51,0.00,40.00,2,1,9,0.00
2013-11-4,63.0,59.3,52.0,49.0,47.3,45.0,78,65,59,0.00,40.00,2,1,7,0.00
2013-11-5,69.0,55.6,47.0,45.0,28.4,6.0,85,46,10,0.00,40.00,3,1,8,0.00
2013-11-6,55.0,51.3,49.0,10.0,9.7,9.0,20,18,16,0.00,40.00,1,1,4,0.00
2013-11-7,83.0,68.5,53.0,18.0,15.2,12.0,21,14,8,0.00,40.00,4,2,9,0.00
2013-11-8,71.0,57.8,53.0,36.0,33.7,16.0,49,42,12,0.00,40.00,1,0,4,0.00
2013-11-13,91.0,73.9,57.0,33.0,30.6,28.0,37,22,11,0.00,40.00,5,2,11,0.00
2013-11-14,89.0,73.9,61.0,28.0,25.0,23.0,23,17,11,0.00,40.00,5,2,9,0.00
2013-11-15,65.0,59.4,52.0,51.0,48.4,43.0,80,68,59,0.00,40.00,4,2,11,0.00
2013-11-16,62.0,44.6,52.0,55.0,17.2,-99.9,100,59,47,0.00,40.00,3,1,9,0.00
2013-11-17,67.0,57.3,51.0,49.0,46.5,45.0,82,68,49,0.00,40.00,3,1,7,0.00
2013-11-18,68.0,58.6,48.0,51.0,48.1,45.0,88,69,52,0.00,40.00,4,2,9,0.00
2013-11-19,63.0,58.4,53.0,51.0,49.6,48.0,83,73,61,0.00,40.00,4,1,8,0.00